,,,PA_Meas_PMT16A,,PR_Meas_QMR101_102,,RH_Meas_QMH101,,SR_Meas_QMS101,,TA_Meas_QMH101,,GenWind,,GenWind,
date,time,status,PA,status,PR,status,RH,status,SR,status,TA,status,DirAvg,status,SpdAvg,
2011-07-27, 00:00:04,VALID,1000.99,VALID,0,VALID,63.1427,VALID,0,VALID,26.6469,VALID,176,VALID,4.33437,
2011-07-27, 00:01:04,VALID,1001,VALID,0,VALID,63.2114,VALID,0,VALID,26.7055,VALID,169,VALID,3.65273,
2011-07-27, 00:02:04,VALID,1000.94,VALID,0,VALID,63.4632,VALID,0,VALID,26.6079,VALID,165,VALID,3.39453,
2011-07-27, 00:03:04,VALID,1000.99,VALID,0,VALID,63.6844,VALID,0,VALID,26.5688,VALID,160,VALID,3.72227,
2011-07-27, 00:04:04,VALID,1000.96,VALID,0,VALID,63.6158,VALID,0,VALID,26.5123,VALID,164,VALID,3.05938,
2011-07-27, 00:05:04,VALID,1000.97,VALID,0,VALID,63.097,VALID,0,VALID,26.5493,VALID,178,VALID,3.68359,
2011-07-27, 00:06:04,VALID,1000.97,VALID,0,VALID,63.1275,VALID,0,VALID,26.6079,VALID,175,VALID,3.78047,
2011-07-27, 00:07:04,VALID,1000.94,VALID,0,VALID,63.219,VALID,0,VALID,26.6079,VALID,168,VALID,3.6625,
2011-07-27, 00:08:04,VALID,1000.89,VALID,0,VALID,63.1198,VALID,0,VALID,26.6099,VALID,186,VALID,5.28359,
2011-07-27, 00:09:04,VALID,1000.99,VALID,0,VALID,63.2114,VALID,0,VALID,26.6294,VALID,177,VALID,3.97578,
2011-07-27, 00:10:04,VALID,1000.95,VALID,0,VALID,62.6926,VALID,0,VALID,26.7076,VALID,175,VALID,4.08516,
2011-07-27, 00:11:04,VALID,1000.97,VALID,0,VALID,62.7613,VALID,0,VALID,26.7271,VALID,178,VALID,4.0168,
2011-07-27, 00:12:04,VALID,1000.95,VALID,0,VALID,62.54,VALID,0,VALID,26.7661,VALID,177,VALID,5.79727,
2011-07-27, 00:13:04,VALID,1000.93,VALID,0,VALID,62.5171,VALID,0,VALID,26.7446,VALID,172,VALID,3.90352,
2011-07-27, 00:14:04,VALID,1000.93,VALID,0,VALID,62.6315,VALID,0,VALID,26.7251,VALID,176,VALID,4.76172,
2011-07-27, 00:15:04,VALID,1000.93,VALID,0,VALID,62.9367,VALID,0,VALID,26.7076,VALID,169,VALID,3.85703,
2011-07-27, 00:16:04,VALID,1000.86,VALID,0,VALID,63.013,VALID,0,VALID,26.6469,VALID,166,VALID,4.35625,
2011-07-27, 00:17:04,VALID,1000.89,VALID,0,VALID,63.3487,VALID,0,VALID,26.6274,VALID,154,VALID,3.07578,
2011-07-27, 00:18:04,VALID,1000.89,VALID,0,VALID,64.0812,VALID,0,VALID,26.5318,VALID,135,VALID,2.38203,
2011-07-27, 00:19:04,VALID,1000.89,VALID,0,VALID,66.2327,VALID,0,VALID,26.2974,VALID,124,VALID,2.87344,
2011-07-27, 00:20:04,VALID,1000.92,VALID,0,VALID,67.8731,VALID,0,VALID,25.9655,VALID,129,VALID,2.59922,
2011-07-27, 00:21:04,VALID,1000.91,VALID,0,VALID,69.1244,VALID,0,VALID,25.6921,VALID,134,VALID,2.3875,
2011-07-27, 00:22:04,VALID,1000.91,VALID,0,VALID,70.1696,VALID,0,VALID,25.4969,VALID,129,VALID,2.00586,
2011-07-27, 00:23:04,VALID,1000.86,VALID,0,VALID,70.7952,VALID,0,VALID,25.3193,VALID,137,VALID,1.43633,
2011-07-27, 00:24:04,VALID,1000.88,VALID,0,VALID,71.3904,VALID,0,VALID,25.1826,VALID,132,VALID,2.01953,
2011-07-27, 00:25:04,VALID,1000.87,VALID,0,VALID,72.0923,VALID,0,VALID,25.0674,VALID,131,VALID,2.34102,
2011-07-27, 00:26:04,VALID,1000.87,VALID,0,VALID,72.5958,VALID,0,VALID,24.9308,VALID,122,VALID,2.08008,
2011-07-27, 00:27:04,VALID,1000.86,VALID,0,VALID,73.3664,VALID,0,VALID,24.7941,VALID,123,VALID,2.1418,
2011-07-27, 00:28:04,VALID,1000.85,VALID,0,VALID,73.8166,VALID,0,VALID,24.6965,VALID,119,VALID,1.98711,
2011-07-27, 00:29:04,VALID,1000.83,VALID,0,VALID,74.4956,VALID,0,VALID,24.638,VALID,120,VALID,1.59961,
2011-07-27, 00:30:04,VALID,1000.8,VALID,0,VALID,75.1823,VALID,0,VALID,24.5385,VALID,109,VALID,2.24492,
2011-07-27, 00:31:04,VALID,1000.83,VALID,0,VALID,75.8613,VALID,0,VALID,24.4019,VALID,108,VALID,1.75937,
2011-07-27, 00:32:04,VALID,1000.84,VALID,0,VALID,76.4793,VALID,0,VALID,24.3043,VALID,107,VALID,2.69336,
2011-07-27, 00:33:04,VALID,1000.86,VALID,0,VALID,76.7387,VALID,0,VALID,24.2653,VALID,113,VALID,2.15,
2011-07-27, 00:34:04,VALID,1000.89,VALID,0,VALID,77.2118,VALID,0,VALID,24.2086,VALID,108,VALID,1.4582,
2011-07-27, 00:35:04,VALID,1000.88,VALID,0,VALID,77.7229,VALID,0,VALID,24.15,VALID,108,VALID,1.39219,
2011-07-27, 00:36:04,VALID,1000.87,VALID,0,VALID,77.9518,VALID,0,VALID,24.0525,VALID,113,VALID,2.11719,
2011-07-27, 00:37:04,VALID,1000.86,VALID,0,VALID,78.0434,VALID,0,VALID,23.9921,VALID,113,VALID,2.06055,
2011-07-27, 00:38:04,VALID,1000.89,VALID,0,VALID,78.2265,VALID,0,VALID,23.9939,VALID,114,VALID,1.90781,
2011-07-27, 00:39:04,VALID,1000.86,VALID,0,VALID,78.5546,VALID,0,VALID,23.9744,VALID,118,VALID,1.7207,
2011-07-27, 00:40:04,VALID,1000.89,VALID,0,VALID,78.6385,VALID,0,VALID,23.9354,VALID,121,VALID,1.9168,
2011-07-27, 00:41:04,VALID,1000.85,VALID,0,VALID,78.5775,VALID,0,VALID,23.8945,VALID,105,VALID,1.97852,
2011-07-27, 00:42:04,VALID,1000.83,VALID,0,VALID,78.463,VALID,0,VALID,23.9159,VALID,111,VALID,2.13594,
2011-07-27, 00:43:04,VALID,1000.8,VALID,0,VALID,78.2418,VALID,0,VALID,23.8945,VALID,118,VALID,2.28555,
2011-07-27, 00:44:04,VALID,1000.79,VALID,0,VALID,77.6238,VALID,0,VALID,23.9549,VALID,121,VALID,2.17266,
2011-07-27, 00:45:04,VALID,1000.77,VALID,0,VALID,76.7463,VALID,0,VALID,24.0915,VALID,118,VALID,1.81836,
2011-07-27, 00:46:04,VALID,1000.75,VALID,0,VALID,76.8608,VALID,0,VALID,24.111,VALID,127,VALID,1.8043,
2011-07-27, 00:47:04,VALID,1000.75,VALID,0,VALID,76.7158,VALID,0,VALID,24.111,VALID,123,VALID,2.1457,
2011-07-27, 00:48:04,VALID,1000.72,VALID,0,VALID,76.5938,VALID,0,VALID,24.1305,VALID,118,VALID,2.78242,
2011-07-27, 00:49:04,VALID,1000.68,VALID,0,VALID,76.3191,VALID,0,VALID,24.1891,VALID,127,VALID,2.40469,
2011-07-27, 00:50:04,VALID,1000.69,VALID,0,VALID,75.9834,VALID,0,VALID,24.2476,VALID,132,VALID,1.77656,
2011-07-27, 00:51:04,VALID,1000.67,VALID,0,VALID,75.8995,VALID,0,VALID,24.3062,VALID,129,VALID,1.84609,
2011-07-27, 00:52:04,VALID,1000.63,VALID,0,VALID,76.0063,VALID,0,VALID,24.2653,VALID,134,VALID,1.31016,
2011-07-27, 00:53:04,VALID,1000.6,VALID,0,VALID,75.8461,VALID,0,VALID,24.2671,VALID,131,VALID,1.38867,
2011-07-27, 00:54:04,VALID,1000.6,VALID,0,VALID,75.2662,VALID,0,VALID,24.2671,VALID,126,VALID,2.30391,
2011-07-27, 00:55:04,VALID,1000.55,VALID,0,VALID,74.9152,VALID,0,VALID,24.3647,VALID,143,VALID,2.08945,
2011-07-27, 00:56:04,VALID,1000.57,VALID,0,VALID,74.7245,VALID,0,VALID,24.4428,VALID,121,VALID,1.98633,
2011-07-27, 00:57:04,VALID,1000.55,VALID,0,VALID,74.4956,VALID,0,VALID,24.5013,VALID,130,VALID,1.84766,
2011-07-27, 00:58:04,VALID,1000.59,VALID,0,VALID,74.3506,VALID,0,VALID,24.5209,VALID,141,VALID,1.37109,
2011-07-27, 00:59:04,VALID,1000.58,VALID,0,VALID,74.3201,VALID,0,VALID,24.5013,VALID,140,VALID,1.23281,
2011-07-27, 01:00:04,VALID,1000.56,VALID,0,VALID,74.2438,VALID,0,VALID,24.5013,VALID,127,VALID,1.25664,
2011-07-27, 01:01:04,VALID,1000.61,VALID,0,VALID,74.2057,VALID,0,VALID,24.48,VALID,123,VALID,1.51094,
2011-07-27, 01:02:04,VALID,1000.57,VALID,0,VALID,74.3812,VALID,0,VALID,24.4214,VALID,113,VALID,1.82578,
2011-07-27, 01:03:04,VALID,1000.6,VALID,0,VALID,75.3883,VALID,0,VALID,24.4037,VALID,104,VALID,1.21836,
2011-07-27, 01:04:04,VALID,1000.55,VALID,0,VALID,75.6401,VALID,0,VALID,24.3238,VALID,114,VALID,0.951172,
2011-07-27, 01:05:04,VALID,1000.55,VALID,0,VALID,75.8766,VALID,0,VALID,24.2458,VALID,115,VALID,0.801562,
2011-07-27, 01:06:04,VALID,1000.57,VALID,0,VALID,75.6935,VALID,0,VALID,24.1482,VALID,127,VALID,1.57813,
2011-07-27, 01:07:04,VALID,1000.58,VALID,0,VALID,75.7163,VALID,0,VALID,24.1696,VALID,137,VALID,0.922266,
2011-07-27, 01:08:04,VALID,1000.57,VALID,0,VALID,75.2891,VALID,0,VALID,24.2263,VALID,135,VALID,1.40195,
2011-07-27, 01:09:04,VALID,1000.53,VALID,0,VALID,75.0678,VALID,0,VALID,24.2848,VALID,137,VALID,0.903516,
2011-07-27, 01:10:04,VALID,1000.52,VALID,0,VALID,75.1899,VALID,0,VALID,24.3452,VALID,100,VALID,1.27344,
2011-07-27, 01:11:04,VALID,1000.52,VALID,0,VALID,75.3501,VALID,0,VALID,24.3433,VALID,100,VALID,0.658984,
2011-07-27, 01:12:04,VALID,1000.49,VALID,0,VALID,75.5866,VALID,0,VALID,24.2848,VALID,100,VALID,0.765625,
2011-07-27, 01:13:04,VALID,1000.51,VALID,0,VALID,75.9147,VALID,0,VALID,24.1872,VALID,100,VALID,0.883594,
2011-07-27, 01:14:04,VALID,1000.46,VALID,0,VALID,76.6929,VALID,0,VALID,24.111,VALID,92,VALID,1.02734,
2011-07-27, 01:15:04,VALID,1000.46,VALID,0,VALID,76.815,VALID,0,VALID,24.0506,VALID,92,VALID,0.883594,
2011-07-27, 01:16:04,VALID,1000.47,VALID,0,VALID,76.9523,VALID,0,VALID,24.0116,VALID,101,VALID,1.04766,
2011-07-27, 01:17:04,VALID,1000.39,VALID,0,VALID,77.0821,VALID,0,VALID,23.9744,VALID,98,VALID,0.784375,
2011-07-27, 01:18:04,VALID,1000.35,VALID,0,VALID,76.8532,VALID,0,VALID,23.9744,VALID,123,VALID,0.432422,
2011-07-27, 01:19:04,VALID,1000.4,VALID,0,VALID,75.8003,VALID,0,VALID,24.0329,VALID,191,VALID,0.859766,
2011-07-27, 01:20:04,VALID,1000.33,VALID,0,VALID,74.7855,VALID,0,VALID,24.0897,VALID,180,VALID,2.04531,
2011-07-27, 01:21:04,VALID,1000.34,VALID,0,VALID,74.0378,VALID,0,VALID,24.2653,VALID,139,VALID,0.865625,
2011-07-27, 01:22:04,VALID,1000.35,VALID,0,VALID,73.5343,VALID,0,VALID,24.4019,VALID,138,VALID,0.449219,
2011-07-27, 01:23:04,VALID,1000.33,VALID,0,VALID,73.7937,VALID,0,VALID,24.4428,VALID,130,VALID,0.169922,
2011-07-27, 01:24:04,VALID,1000.3,VALID,0,VALID,73.9692,VALID,0.112286,VALID,24.4428,VALID,225,VALID,0.235938,
2011-07-27, 01:25:04,VALID,1000.31,VALID,0,VALID,74.2896,VALID,0,VALID,24.4037,VALID,217,VALID,0.432813,
2011-07-27, 01:26:04,VALID,1000.26,VALID,0,VALID,72.0618,VALID,0,VALID,24.5385,VALID,179,VALID,1.92305,
2011-07-27, 01:27:04,VALID,1000.28,VALID,0,VALID,70.429,VALID,0,VALID,25.0284,VALID,185,VALID,2.08086,
2011-07-27, 01:28:04,VALID,1000.28,VALID,0,VALID,69.132,VALID,0,VALID,25.2607,VALID,176,VALID,1.2957,
2011-07-27, 01:29:04,VALID,1000.25,VALID,0,VALID,68.1325,VALID,0,VALID,25.4559,VALID,197,VALID,2.04844,
2011-07-27, 01:30:04,VALID,1000.22,VALID,0,VALID,67.0796,VALID,0,VALID,25.6902,VALID,167,VALID,4.0957,
2011-07-27, 01:31:04,VALID,1000.22,VALID,0,VALID,66.6905,VALID,0,VALID,25.8268,VALID,180,VALID,2.04219,
2011-07-27, 01:32:04,VALID,1000.19,VALID,0,VALID,66.2556,VALID,0,VALID,25.946,VALID,179,VALID,2.56797,
2011-07-27, 01:33:04,VALID,1000.13,VALID,0,VALID,66.2175,VALID,0,VALID,26.0045,VALID,236,VALID,1.29922,
2011-07-27, 01:34:04,VALID,1000.15,VALID,0,VALID,66.1946,VALID,0,VALID,25.9655,VALID,206,VALID,1.7375,
2011-07-27, 01:35:04,VALID,1000.11,VALID,0,VALID,65.7826,VALID,0,VALID,26.0631,VALID,187,VALID,2.59727,
2011-07-27, 01:36:04,VALID,1000.1,VALID,0,VALID,65.2027,VALID,0,VALID,26.1607,VALID,178,VALID,2.04688,
2011-07-27, 01:37:04,VALID,1000.07,VALID,0,VALID,65.2485,VALID,0,VALID,26.1803,VALID,193,VALID,2.32617,
2011-07-27, 01:38:04,VALID,1000.02,VALID,0,VALID,65.073,VALID,0,VALID,26.1392,VALID,174,VALID,2.6293,
2011-07-27, 01:39:04,VALID,1000.02,VALID,0,VALID,64.8365,VALID,0,VALID,26.1783,VALID,217,VALID,2.97891,
2011-07-27, 01:40:04,VALID,1000.07,VALID,0,VALID,64.6687,VALID,0,VALID,26.1978,VALID,190,VALID,2.49844,
2011-07-27, 01:41:04,VALID,999.977,VALID,0,VALID,64.3482,VALID,0,VALID,26.2564,VALID,178,VALID,3.58437,
2011-07-27, 01:42:04,VALID,999.938,VALID,0,VALID,64.1117,VALID,0,VALID,26.3365,VALID,200,VALID,2.56992,
2011-07-27, 01:43:04,VALID,999.918,VALID,0,VALID,63.9896,VALID,0,VALID,26.3756,VALID,180,VALID,2.40469,
2011-07-27, 01:44:04,VALID,999.899,VALID,0,VALID,64.1804,VALID,0,VALID,26.3345,VALID,209,VALID,2.15117,
2011-07-27, 01:45:04,VALID,999.878,VALID,0,VALID,64.3177,VALID,0,VALID,26.317,VALID,177,VALID,3.3332,
2011-07-27, 01:46:04,VALID,999.88,VALID,0,VALID,64.661,VALID,0,VALID,26.2584,VALID,163,VALID,2.75664,
2011-07-27, 01:47:04,VALID,999.882,VALID,0,VALID,64.8289,VALID,0,VALID,26.1588,VALID,172,VALID,2.61992,
2011-07-27, 01:48:04,VALID,999.928,VALID,0,VALID,65.0044,VALID,0,VALID,26.1392,VALID,187,VALID,1.79805,
2011-07-27, 01:49:04,VALID,999.921,VALID,0,VALID,64.5618,VALID,0,VALID,26.1588,VALID,178,VALID,2.91563,
2011-07-27, 01:50:04,VALID,999.926,VALID,0,VALID,64.5542,VALID,0,VALID,26.2193,VALID,182,VALID,2.46445,
2011-07-27, 01:51:04,VALID,999.884,VALID,0,VALID,64.5161,VALID,0,VALID,26.2173,VALID,165,VALID,3.91172,
2011-07-27, 01:52:04,VALID,999.888,VALID,0,VALID,64.5618,VALID,0,VALID,26.2389,VALID,176,VALID,3.59727,
2011-07-27, 01:53:04,VALID,999.857,VALID,0,VALID,64.1041,VALID,0,VALID,26.2779,VALID,178,VALID,3.93516,
2011-07-27, 01:54:04,VALID,999.846,VALID,0,VALID,64.1117,VALID,0,VALID,26.2779,VALID,163,VALID,2.93164,
2011-07-27, 01:55:04,VALID,999.786,VALID,0,VALID,64.2567,VALID,0,VALID,26.1978,VALID,183,VALID,3.16133,
2011-07-27, 01:56:04,VALID,999.782,VALID,0,VALID,64.6152,VALID,0,VALID,26.1978,VALID,190,VALID,3.21563,
2011-07-27, 01:57:04,VALID,999.744,VALID,0,VALID,64.1041,VALID,0,VALID,26.2954,VALID,170,VALID,4.09609,
2011-07-27, 01:58:04,VALID,999.703,VALID,0,VALID,63.8828,VALID,0,VALID,26.317,VALID,178,VALID,3.29688,
2011-07-27, 01:59:04,VALID,999.683,VALID,0,VALID,64.0888,VALID,0,VALID,26.3365,VALID,174,VALID,3.55898,
2011-07-27, 02:00:04,VALID,999.644,VALID,0,VALID,63.9973,VALID,0,VALID,26.3365,VALID,170,VALID,3.92734,
2011-07-27, 02:01:04,VALID,999.664,VALID,0,VALID,64.2109,VALID,0,VALID,26.315,VALID,182,VALID,2.75469,
2011-07-27, 02:02:04,VALID,999.686,VALID,0,VALID,64.2948,VALID,0,VALID,26.2779,VALID,166,VALID,2.92031,
2011-07-27, 02:03:04,VALID,999.684,VALID,0,VALID,64.394,VALID,0,VALID,26.2369,VALID,169,VALID,2.79453,
2011-07-27, 02:04:04,VALID,999.655,VALID,0,VALID,64.6916,VALID,0,VALID,26.1783,VALID,173,VALID,2.31289,
2011-07-27, 02:05:04,VALID,999.644,VALID,0,VALID,64.9052,VALID,0,VALID,26.1607,VALID,172,VALID,3.73438,
2011-07-27, 02:06:04,VALID,999.579,VALID,0,VALID,64.4169,VALID,0,VALID,26.1998,VALID,177,VALID,6.02617,
2011-07-27, 02:07:04,VALID,999.603,VALID,0,VALID,63.9133,VALID,0,VALID,26.3951,VALID,170,VALID,4.68984,
2011-07-27, 02:08:04,VALID,999.592,VALID,0,VALID,63.5547,VALID,0,VALID,26.4537,VALID,175,VALID,4.49844,
2011-07-27, 02:09:04,VALID,999.595,VALID,0,VALID,63.5776,VALID,0,VALID,26.4732,VALID,174,VALID,4.03516,
2011-07-27, 02:10:04,VALID,999.613,VALID,0,VALID,63.6768,VALID,0,VALID,26.4732,VALID,173,VALID,5.42461,
2011-07-27, 02:11:04,VALID,999.538,VALID,0,VALID,63.5624,VALID,0,VALID,26.4732,VALID,172,VALID,5.29414,
2011-07-27, 02:12:04,VALID,999.528,VALID,0,VALID,63.5242,VALID,0,VALID,26.4732,VALID,181,VALID,5.23867,
2011-07-27, 02:13:04,VALID,999.501,VALID,0,VALID,63.5929,VALID,0,VALID,26.4537,VALID,174,VALID,5.07109,
2011-07-27, 02:14:04,VALID,999.536,VALID,0,VALID,63.6997,VALID,0,VALID,26.4537,VALID,173,VALID,4.9668,
2011-07-27, 02:15:04,VALID,999.497,VALID,0,VALID,63.57,VALID,0,VALID,26.4146,VALID,173,VALID,3.64531,
2011-07-27, 02:16:04,VALID,999.5,VALID,0,VALID,63.5013,VALID,0,VALID,26.4732,VALID,185,VALID,5.80781,
2011-07-27, 02:17:04,VALID,999.443,VALID,0,VALID,63.2114,VALID,0,VALID,26.5513,VALID,180,VALID,5.76523,
2011-07-27, 02:18:04,VALID,999.355,VALID,0,VALID,63.1122,VALID,0,VALID,26.4907,VALID,179,VALID,4.99492,
2011-07-27, 02:19:04,VALID,999.436,VALID,0,VALID,63.3106,VALID,0,VALID,26.4927,VALID,176,VALID,5.43711,
2011-07-27, 02:20:04,VALID,999.444,VALID,0,VALID,63.4403,VALID,0,VALID,26.4517,VALID,182,VALID,3.37344,
2011-07-27, 02:21:04,VALID,999.44,VALID,0,VALID,63.7073,VALID,0,VALID,26.4517,VALID,167,VALID,4.69297,
2011-07-27, 02:22:04,VALID,999.398,VALID,0,VALID,63.6844,VALID,0,VALID,26.4517,VALID,178,VALID,3.54766,
2011-07-27, 02:23:04,VALID,999.435,VALID,0,VALID,63.7836,VALID,0,VALID,26.4321,VALID,183,VALID,3.75039,
2011-07-27, 02:24:04,VALID,999.396,VALID,0,VALID,64.1041,VALID,0,VALID,26.4341,VALID,167,VALID,4.10195,
2011-07-27, 02:25:04,VALID,999.39,VALID,0,VALID,64.1041,VALID,0,VALID,26.4341,VALID,177,VALID,6.23047,
2011-07-27, 02:26:04,VALID,999.403,VALID,0,VALID,63.8294,VALID,0,VALID,26.4927,VALID,176,VALID,4.66172,
2011-07-27, 02:27:04,VALID,999.4,VALID,0,VALID,63.8294,VALID,0,VALID,26.5123,VALID,176,VALID,4.4043,
2011-07-27, 02:28:04,VALID,999.416,VALID,0,VALID,63.9438,VALID,0,VALID,26.4927,VALID,167,VALID,5.37969,
2011-07-27, 02:29:04,VALID,999.373,VALID,0,VALID,63.8981,VALID,0,VALID,26.4321,VALID,171,VALID,5.62187,
2011-07-27, 02:30:04,VALID,999.389,VALID,0,VALID,63.6387,VALID,0,VALID,26.4907,VALID,187,VALID,4.69141,
2011-07-27, 02:31:04,VALID,999.35,VALID,0,VALID,63.5853,VALID,0,VALID,26.5513,VALID,167,VALID,4.76406,
2011-07-27, 02:32:04,VALID,999.401,VALID,0,VALID,63.8065,VALID,0,VALID,26.5123,VALID,170,VALID,4.01211,
2011-07-27, 02:33:04,VALID,999.377,VALID,0,VALID,64.1193,VALID,0,VALID,26.4732,VALID,161,VALID,6.11914,
2011-07-27, 02:34:04,VALID,999.406,VALID,0,VALID,64.2643,VALID,0,VALID,26.4732,VALID,162,VALID,4.86172,
2011-07-27, 02:35:04,VALID,999.437,VALID,0,VALID,64.1498,VALID,0,VALID,26.4732,VALID,176,VALID,3.8168,
2011-07-27, 02:36:04,VALID,999.444,VALID,0,VALID,64.333,VALID,0,VALID,26.4126,VALID,168,VALID,4.92539,
2011-07-27, 02:37:04,VALID,999.404,VALID,0,VALID,64.3177,VALID,0,VALID,26.3931,VALID,184,VALID,4.19844,
2011-07-27, 02:38:04,VALID,999.37,VALID,0,VALID,64.0659,VALID,0,VALID,26.4517,VALID,177,VALID,4.07344,
2011-07-27, 02:39:04,VALID,999.411,VALID,0,VALID,64.249,VALID,0,VALID,26.4517,VALID,170,VALID,4.00117,
2011-07-27, 02:40:04,VALID,999.369,VALID,0,VALID,64.2338,VALID,0,VALID,26.4146,VALID,170,VALID,4.28672,
2011-07-27, 02:41:04,VALID,999.348,VALID,0,VALID,64.1117,VALID,0,VALID,26.354,VALID,176,VALID,4.78203,
2011-07-27, 02:42:04,VALID,999.377,VALID,0,VALID,64.2948,VALID,0,VALID,26.3736,VALID,167,VALID,4.09531,
2011-07-27, 02:43:04,VALID,999.414,VALID,0,VALID,64.1117,VALID,0,VALID,26.3951,VALID,172,VALID,4.7418,
2011-07-27, 02:44:04,VALID,999.334,VALID,0,VALID,64.1956,VALID,0,VALID,26.3736,VALID,174,VALID,3.37578,
2011-07-27, 02:45:04,VALID,999.348,VALID,0,VALID,64.0583,VALID,0,VALID,26.3951,VALID,169,VALID,6.31797,
2011-07-27, 02:46:04,VALID,999.391,VALID,0,VALID,64.0201,VALID,0,VALID,26.4341,VALID,180,VALID,4.54219,
2011-07-27, 02:47:04,VALID,999.357,VALID,0,VALID,63.9133,VALID,0,VALID,26.4517,VALID,174,VALID,4.60977,
2011-07-27, 02:48:04,VALID,999.42,VALID,0,VALID,64.0201,VALID,0,VALID,26.4712,VALID,177,VALID,4.37891,
2011-07-27, 02:49:04,VALID,999.398,VALID,0,VALID,63.9973,VALID,0,VALID,26.4537,VALID,174,VALID,5.64102,
2011-07-27, 02:50:04,VALID,999.421,VALID,0,VALID,64.394,VALID,0,VALID,26.4341,VALID,168,VALID,4.91172,
2011-07-27, 02:51:04,VALID,999.424,VALID,0,VALID,64.6687,VALID,0,VALID,26.315,VALID,179,VALID,3.74805,
2011-07-27, 02:52:04,VALID,999.431,VALID,0,VALID,64.6229,VALID,0,VALID,26.317,VALID,174,VALID,4.37187,
2011-07-27, 02:53:04,VALID,999.401,VALID,0,VALID,64.333,VALID,0,VALID,26.3736,VALID,171,VALID,4.71992,
2011-07-27, 02:54:04,VALID,999.404,VALID,0,VALID,64.1422,VALID,0,VALID,26.4126,VALID,170,VALID,4.08555,
2011-07-27, 02:55:04,VALID,999.423,VALID,0,VALID,64.6,VALID,0,VALID,26.4126,VALID,174,VALID,4.65156,
2011-07-27, 02:56:04,VALID,999.41,VALID,0,VALID,64.8518,VALID,0,VALID,26.3756,VALID,174,VALID,4.06172,
2011-07-27, 02:57:04,VALID,999.337,VALID,0,VALID,64.5313,VALID,0,VALID,26.4126,VALID,168,VALID,7.06055,
2011-07-27, 02:58:04,VALID,999.43,VALID,0,VALID,64.6152,VALID,0,VALID,26.3931,VALID,177,VALID,4.43984,
2011-07-27, 02:59:04,VALID,999.392,VALID,0,VALID,64.3482,VALID,0,VALID,26.4517,VALID,167,VALID,5.3293,
2011-07-27, 03:00:04,VALID,999.394,VALID,0,VALID,64.2261,VALID,0,VALID,26.4732,VALID,172,VALID,4.70625,
2011-07-27, 03:01:04,VALID,999.418,VALID,0,VALID,64.539,VALID,0,VALID,26.4126,VALID,183,VALID,3.80234,
2011-07-27, 03:02:04,VALID,999.425,VALID,0,VALID,64.5084,VALID,0,VALID,26.4341,VALID,180,VALID,3.51055,
2011-07-27, 03:03:04,VALID,999.443,VALID,0,VALID,64.4703,VALID,0,VALID,26.4321,VALID,178,VALID,3.49141,
2011-07-27, 03:04:04,VALID,999.498,VALID,0,VALID,64.2261,VALID,0,VALID,26.4321,VALID,168,VALID,5.17539,
2011-07-27, 03:05:04,VALID,999.492,VALID,0,VALID,64.4627,VALID,0,VALID,26.4321,VALID,169,VALID,3.83359,
2011-07-27, 03:06:04,VALID,999.461,VALID,0,VALID,64.3482,VALID,0,VALID,26.4341,VALID,179,VALID,3.63477,
2011-07-27, 03:07:04,VALID,999.488,VALID,0,VALID,64.188,VALID,0,VALID,26.4341,VALID,173,VALID,4.78047,
2011-07-27, 03:08:04,VALID,999.489,VALID,0,VALID,64.0278,VALID,0,VALID,26.4517,VALID,184,VALID,4.41875,
2011-07-27, 03:09:04,VALID,999.479,VALID,0,VALID,63.921,VALID,0,VALID,26.5123,VALID,191,VALID,4.7625,
2011-07-27, 03:10:04,VALID,999.491,VALID,0,VALID,63.8447,VALID,0,VALID,26.5708,VALID,186,VALID,4.32344,
2011-07-27, 03:11:04,VALID,999.427,VALID,0,VALID,63.7684,VALID,0,VALID,26.5513,VALID,187,VALID,5.00156,
2011-07-27, 03:12:04,VALID,999.422,VALID,0,VALID,63.7302,VALID,0,VALID,26.5513,VALID,178,VALID,5.97852,
2011-07-27, 03:13:04,VALID,999.462,VALID,0,VALID,64.0964,VALID,0,VALID,26.5318,VALID,175,VALID,3.95352,
2011-07-27, 03:14:04,VALID,999.495,VALID,0,VALID,64.5008,VALID,0,VALID,26.4537,VALID,193,VALID,3.05703,
2011-07-27, 03:15:04,VALID,999.434,VALID,0,VALID,64.4627,VALID,0,VALID,26.4341,VALID,192,VALID,3.34141,
2011-07-27, 03:16:04,VALID,999.451,VALID,0,VALID,64.333,VALID,0,VALID,26.4321,VALID,192,VALID,4.19727,
2011-07-27, 03:17:04,VALID,999.442,VALID,0,VALID,64.2261,VALID,0,VALID,26.4927,VALID,181,VALID,5.19023,
2011-07-27, 03:18:04,VALID,999.365,VALID,0,VALID,64.2033,VALID,0,VALID,26.4712,VALID,174,VALID,4.89453,
2011-07-27, 03:19:04,VALID,999.391,VALID,0,VALID,64.127,VALID,0,VALID,26.4732,VALID,175,VALID,4.94922,
2011-07-27, 03:20:04,VALID,999.385,VALID,0,VALID,63.9667,VALID,0,VALID,26.4712,VALID,171,VALID,4.76289,
2011-07-27, 03:21:04,VALID,999.361,VALID,0,VALID,64.0049,VALID,0,VALID,26.4927,VALID,187,VALID,4.33789,
2011-07-27, 03:22:04,VALID,999.41,VALID,0,VALID,64.1117,VALID,0,VALID,26.4927,VALID,176,VALID,4.19609,
2011-07-27, 03:23:04,VALID,999.369,VALID,0,VALID,64.1651,VALID,0,VALID,26.4517,VALID,175,VALID,4.88281,
2011-07-27, 03:24:04,VALID,999.403,VALID,0,VALID,64.2719,VALID,0,VALID,26.4537,VALID,172,VALID,4.33398,
2011-07-27, 03:25:04,VALID,999.329,VALID,0,VALID,63.9591,VALID,0,VALID,26.4732,VALID,160,VALID,4.55078,
2011-07-27, 03:26:04,VALID,999.263,VALID,0,VALID,63.9438,VALID,0,VALID,26.4732,VALID,173,VALID,5.90352,
2011-07-27, 03:27:04,VALID,999.315,VALID,0,VALID,64.0125,VALID,0,VALID,26.4732,VALID,172,VALID,4.20703,
2011-07-27, 03:28:04,VALID,999.297,VALID,0,VALID,64.043,VALID,0,VALID,26.4732,VALID,172,VALID,4.29375,
2011-07-27, 03:29:04,VALID,999.303,VALID,0,VALID,63.982,VALID,0,VALID,26.4732,VALID,184,VALID,2.74453,
2011-07-27, 03:30:04,VALID,999.267,VALID,0,VALID,63.8752,VALID,0,VALID,26.4732,VALID,172,VALID,5.78633,
2011-07-27, 03:31:04,VALID,999.262,VALID,0,VALID,64.1117,VALID,0,VALID,26.4537,VALID,179,VALID,4.59883,
2011-07-27, 03:32:04,VALID,999.251,VALID,0,VALID,64.1117,VALID,0,VALID,26.4126,VALID,167,VALID,6.10508,
2011-07-27, 03:33:04,VALID,999.269,VALID,0,VALID,64.1117,VALID,0,VALID,26.4341,VALID,169,VALID,6.1,
2011-07-27, 03:34:04,VALID,999.256,VALID,0,VALID,63.921,VALID,0,VALID,26.4927,VALID,171,VALID,6.02422,
2011-07-27, 03:35:04,VALID,999.296,VALID,0,VALID,63.7607,VALID,0,VALID,26.5318,VALID,170,VALID,5.28086,
2011-07-27, 03:36:04,VALID,999.288,VALID,0,VALID,63.6005,VALID,0,VALID,26.5318,VALID,177,VALID,4.53086,
2011-07-27, 03:37:04,VALID,999.318,VALID,0,VALID,63.6692,VALID,0,VALID,26.5513,VALID,179,VALID,5.24492,
2011-07-27, 03:38:04,VALID,999.262,VALID,0,VALID,63.776,VALID,0,VALID,26.5318,VALID,177,VALID,4.72305,
2011-07-27, 03:39:04,VALID,999.321,VALID,0,VALID,63.3793,VALID,0,VALID,26.5513,VALID,174,VALID,5.64102,
2011-07-27, 03:40:04,VALID,999.299,VALID,0,VALID,63.3716,VALID,0,VALID,26.5708,VALID,175,VALID,6.10742,
2011-07-27, 03:41:04,VALID,999.297,VALID,0,VALID,63.0054,VALID,0,VALID,26.5708,VALID,176,VALID,5.02852,
2011-07-27, 03:42:04,VALID,999.293,VALID,0,VALID,62.7841,VALID,0,VALID,26.6079,VALID,171,VALID,5.75156,
2011-07-27, 03:43:04,VALID,999.282,VALID,0,VALID,62.9215,VALID,0,VALID,26.649,VALID,178,VALID,6.66172,
2011-07-27, 03:44:04,VALID,999.272,VALID,0,VALID,62.8986,VALID,0,VALID,26.649,VALID,180,VALID,5.55977,
2011-07-27, 03:45:04,VALID,999.313,VALID,0,VALID,62.9749,VALID,0,VALID,26.6469,VALID,172,VALID,5.35742,
2011-07-27, 03:46:04,VALID,999.337,VALID,0,VALID,63.2267,VALID,0,VALID,26.5884,VALID,166,VALID,4.93203,